KB2UHF-8 Weather Reports


time (UTC)temp
C
wind
direction
speed
KPH
gust
KPH
rain 1hr
cm
rain 24hr
cm
rain mn
cm
humidity
%
barometer
mb
20260905093536 20 0.0 4.8 0.00 1.04 0.00 98 1014.7
20260905092516 20 0.0 0.0 0.00 1.04 0.00 98 1014.6
20260905091516 20 68 3.2 6.4 0.00 1.04 0.00 98 1014.8
20260905090516 20 0.0 0.0 0.00 1.04 0.00 98 1014.8
20260905085516 20 0.0 0.0 0.00 1.04 0.00 98 1014.8
20260905084516 20 0.0 0.0 0.00 1.04 0.00 98 1014.9
20260905083516 20 0.0 0.0 0.00 1.04 0.00 98 1014.8
20260905082557 20 0.0 0.0 0.00 1.04 0.00 98 1014.8
20260905081536 20 0.0 0.0 0.00 1.04 0.00 98 1014.8
20260905080536 20 0.0 0.0 0.00 1.04 0.00 98 1014.8
20260905075515 20 0.0 0.0 0.00 1.04 0.00 97 1014.8
20260905074536 20 0.0 0.0 0.00 1.04 0.00 97 1014.8
20260905073515 20 0.0 0.0 0.00 1.04 0.00 97 1014.7
20260905072515 20 0.0 0.0 0.00 1.04 0.00 98 1014.7
20260905071515 20 0.0 0.0 0.00 1.04 0.00 98 1014.8
20260905070536 20 0.0 1.6 0.00 1.04 0.00 98 1014.8
20260905065656 20 45 3.2 4.8 0.00 1.04 0.00 98 1014.8
20260905064535 20 0.0 1.6 0.00 1.04 0.00 98 1014.8
20260905063515 20 0.0 1.6 0.00 1.04 0.00 98 1014.8
20260905062537 20 0.0 0.0 0.00 1.04 0.00 98 1014.6
20260905061537 20 45 1.6 6.4 0.00 1.04 0.00 98 1014.7
20260905060515 20 0.0 0.0 0.00 1.04 0.00 97 1014.6
20260905055516 20 0.0 0.0 0.00 1.04 0.00 97 1014.6
20260905054515 20 45 1.6 4.8 0.00 1.04 0.00 97 1014.5
20260905053515 20 45 3.2 6.4 0.00 1.04 0.00 97 1014.6
20260905052515 20 270 1.6 4.8 0.00 1.04 0.00 97 1014.6
20260905051535 20 90 3.2 6.4 0.00 1.04 0.00 96 1014.7
20260905050515 20 0.0 0.0 0.00 1.04 0.00 97 1014.5
20260905045516 20 0.0 0.0 0.00 1.04 1.04 97 1014.4
20260905044516 20 0.0 0.0 0.00 1.04 1.04 96 1014.5
20260905043516 20 0.0 0.0 0.00 1.04 1.04 96 1014.5
20260905042516 20 68 3.2 6.4 0.00 1.04 1.04 96 1014.6
20260905041536 20 0.0 0.0 0.00 1.04 1.04 96 1014.2
20260905040516 20 45 1.6 6.4 0.00 1.07 1.04 96 1014.4
20260905035516 20 68 4.8 8.0 0.00 1.09 1.04 96 1014.4
20260905034536 20 225 3.2 4.8 0.00 1.09 1.04 96 1014.2
20260905033516 20 270 4.8 9.7 0.00 1.09 1.04 95 1014.3
20260905032516 21 0.0 0.0 0.00 1.09 1.04 93 1014.4
20260905031516 21 45 3.2 4.8 0.00 1.09 1.04 92 1014.4
20260905030516 21 158 1.6 6.4 0.00 1.09 1.04 92 1014.4
20260905025538 21 0.0 0.0 0.00 1.09 1.04 92 1014.3
20260905024516 21 0.0 0.0 0.00 1.09 1.04 93 1014.2
20260905023516 21 0.0 3.2 0.00 1.09 1.04 94 1014.2
20260905022516 21 45 3.2 6.4 0.00 1.09 1.04 95 1014.2
20260905021516 21 270 3.2 4.8 0.00 1.09 1.04 94 1014.2
20260905020556 22 0.0 3.2 0.00 1.09 1.04 92 1014.2
20260905015516 22 0.0 0.0 0.00 1.09 1.04 91 1014.2
20260905014516 22 0.0 0.0 0.00 1.09 1.04 91 1014.3
20260905013516 22 90 3.2 6.4 0.00 1.09 1.04 91 1014.2
20260905012516 22 90 1.6 4.8 0.00 1.09 1.04 91 1014.4
20260905011536 22 0.0 3.2 0.00 1.09 1.04 90 1014.2
20260905010516 22 0.0 3.2 0.00 1.09 1.04 91 1014.1
20260905005516 22 68 3.2 4.8 0.00 1.09 1.04 91 1013.9
20260905004516 23 0.0 4.8 0.00 1.09 1.04 89 1014.0
20260905003516 23 0.0 0.0 0.00 1.09 1.04 87 1013.9
20260905002516 24 0.0 0.0 0.00 1.09 1.04 85 1013.6
20260905001516 24 0.0 0.0 0.00 1.09 1.04 85 1013.6
20260905000516 25 0.0 3.2 0.00 1.09 1.04 84 1013.3
20260904235516 25 0.0 3.2 0.00 1.09 1.04 84 1013.2
20260904234515 25 225 3.2 6.4 0.00 1.09 1.04 86 1013.3
20260904233536 25 270 1.6 6.4 0.00 1.09 1.04 86 1013.3
20260904232535 25 270 3.2 9.7 0.00 1.09 1.04 84 1013.3
20260904231515 25 248 3.2 9.7 0.00 1.09 1.04 86 1013.4
20260904230515 24 270 3.2 6.4 0.00 1.09 1.04 88 1013.3
20260904225516 23 270 3.2 9.7 0.00 1.09 1.04 91 1013.5
20260904224515 23 225 3.2 9.7 0.00 1.09 1.04 91 1013.5
20260904223515 23 225 4.8 8.0 0.00 1.09 1.04 90 1013.5
20260904222515 23 248 4.8 12.9 0.00 1.09 1.04 91 1013.4
20260904221515 23 248 6.4 12.9 0.00 1.09 1.04 91 1013.4
20260904220516 24 248 1.6 6.4 0.00 1.09 1.04 92 1013.2
20260904215535 24 0.0 1.6 0.00 1.09 1.04 90 1012.8
20260904214515 24 293 1.6 4.8 0.00 1.09 1.04 90 1012.5
20260904213516 24 248 1.6 4.8 0.00 1.09 1.04 92 1012.9
20260904212535 24 225 3.2 6.4 0.00 1.09 1.04 94 1012.8
20260904211515 24 225 6.4 16.1 0.00 1.09 1.04 96 1013.4
20260904210515 24 0.0 1.6 0.00 1.09 1.04 97 1013.2
20260904205556 24 270 3.2 6.4 0.00 1.09 1.04 96 1013.1
20260904204537 24 248 4.8 9.7 0.00 1.09 1.04 96 1013.4
20260904203517 24 225 3.2 4.8 0.00 1.09 1.04 96 1013.2
20260904202535 25 0.0 0.0 0.00 1.09 1.04 96 1012.8
20260904201515 25 0.0 0.0 0.00 1.09 1.04 96 1013.3
20260904200517 25 0.0 1.6 0.00 1.09 1.04 96 1013.0
20260904195535 25 0.0 4.8 0.00 1.09 1.04 96 1012.9
20260904194535 24 135 1.6 8.0 0.00 1.09 1.04 96 1012.9
20260904193515 24 135 4.8 6.4 0.00 1.09 1.04 96 1013.0
20260904192515 23 0.0 3.2 0.00 1.09 1.04 96 1013.0
20260904191515 23 135 3.2 6.4 0.00 1.09 1.04 96 1013.0
20260904190515 23 225 1.6 4.8 0.00 1.09 1.04 96 1013.5
20260904185515 23 248 3.2 4.8 0.00 1.09 1.04 95 1013.5
20260904184517 23 0.0 3.2 0.03 1.09 1.04 96 1013.6
20260904183515 23 248 3.2 8.0 0.08 1.09 1.04 96 1013.5
20260904182515 23 270 3.2 6.4 0.08 1.09 1.04 96 1013.5
20260904181515 23 158 3.2 8.0 0.10 1.09 1.04 96 1013.6
20260904180515 24 135 4.8 9.7 0.13 1.09 1.04 96 1013.8
20260904175515 24 135 6.4 16.1 0.15 1.09 1.04 96 1013.9
20260904174515 24 270 1.6 4.8 0.51 1.07 1.02 96 1014.7
20260904173517 24 158 1.6 4.8 0.79 1.02 0.97 96 1014.5
20260904172517 24 158 1.6 8.0 0.81 1.02 0.97 96 1014.1
20260904171517 24 158 4.8 11.3 0.79 0.99 0.94 95 1014.2
20260904170517 24 113 6.4 12.9 0.76 0.97 0.91 94 1014.1
20260904165517 25 113 11.3 17.7 0.74 0.94 0.89 93 1013.8
20260904164517 25 135 8.0 19.3 0.36 0.56 0.51 91 1014.2
20260904163517 26 135 8.0 19.3 0.03 0.23 0.18 86 1014.7
20260904162517 27 113 9.7 16.1 0.00 0.20 0.15 88 1014.6
20260904161519 26 135 8.0 17.7 0.00 0.25 0.15 90 1014.3
20260904160517 26 135 9.7 16.1 0.00 0.30 0.15 88 1014.2
20260904155517 26 135 8.0 14.5 0.00 0.46 0.15 90 1014.3
20260904154537 26 113 6.4 16.1 0.03 0.56 0.15 89 1014.3
20260904153517 26 113 6.4 11.3 0.03 0.56 0.15 91 1014.3
20260904152517 25 135 9.7 17.7 0.03 0.61 0.15 92 1014.0
20260904151517 25 113 6.4 16.1 0.03 0.66 0.15 92 1014.2
20260904150517 25 135 9.7 16.1 0.03 0.69 0.15 90 1013.9
20260904145517 26 135 9.7 17.7 0.03 0.69 0.15 89 1014.0
20260904144517 25 113 9.7 19.3 0.00 0.69 0.13 92 1014.0
20260904143517 25 113 9.7 14.5 0.00 0.71 0.13 94 1013.8
20260904142517 24 135 9.7 16.1 0.00 0.71 0.13 95 1013.7
20260904141517 24 113 6.4 11.3 0.00 0.71 0.13 98 1013.4
20260904140517 23 158 4.8 8.0 0.00 0.71 0.13 97 1013.6
20260904135517 23 158 4.8 8.0 0.00 0.74 0.13 97 1013.5
20260904134517 23 90 4.8 6.4 0.00 0.79 0.13 97 1013.4
20260904133517 23 0.0 1.6 0.00 0.84 0.13 97 1013.6
20260904132557 23 90 3.2 4.8 0.00 0.94 0.13 97 1013.5
20260904131518 23 90 4.8 6.4 0.00 0.99 0.13 97 1013.3
20260904130516 23 113 3.2 4.8 0.00 1.04 0.13 97 1013.3
20260904125517 23 0.0 0.0 0.00 1.14 0.13 97 1013.2
20260904124517 23 90 3.2 6.4 0.00 1.19 0.13 97 1013.0
20260904123517 23 0.0 4.8 0.00 1.27 0.13 97 1012.9
20260904122517 23 0.0 0.0 0.00 1.30 0.13 96 1012.6
20260904121517 23 0.0 0.0 0.00 1.32 0.13 96 1012.3
20260904120517 23 0.0 0.0 0.00 1.32 0.13 96 1012.4
20260904115517 23 45 1.6 4.8 0.00 1.32 0.13 96 1012.5
20260904114557 23 0.0 0.0 0.13 1.32 0.13 96 1012.3
20260904113518 23 0.0 0.0 0.13 1.32 0.13 95 1012.4
20260904112538 23 0.0 4.8 0.13 1.32 0.13 95 1012.2
20260904111517 23 180 1.6 8.0 0.13 1.32 0.13 95 1012.3
20260904110537 23 180 4.8 9.7 0.13 1.32 0.13 95 1012.1
20260904105517 23 248 1.6 6.4 0.13 1.32 0.13 95 1012.3
20260904104537 23 315 3.2 6.4 0.00 1.19 0.00 94 1012.4
20260904103518 23 248 1.6 4.8 0.00 1.19 0.00 94 1012.1
20260904102517 23 225 3.2 11.3 0.00 1.19 0.00 94 1012.1
20260904101517 23 225 3.2 11.3 0.00 1.19 0.00 94 1012.1
20260904100517 23 203 1.6 8.0 0.00 1.19 0.00 95 1012.2
20260904095537 24 180 1.6 9.7 0.00 1.19 0.00 95 1012.1
20260904094517 24 0.0 3.2 0.00 1.19 0.00 95 1012.4